Weather History for Abbeville, LA

Change the Weather History Date:

Friday, November 8, 2013

  Actual Average (KARA) Record (KARA)
Temperature  
Mean Temperature 55 °F 63 °F  
Max Temperature 67 °F 75 °F 84 °F (1986)
Min Temperature 43 °F 52 °F 29 °F (1991)
Degree Days  
Heating Degree Days 10 3  
Month to date heating degree days 24  
Since 1 July heating degree days 58  
Cooling Degree Days 0 2  
Month to date cooling degree days 19  
Year to date cooling degree days 2764  
Growing Degree Days 5 (Base 50)    
Moisture  
Dew Point 35 °F    
Average Humidity 58    
Maximum Humidity 100    
Minimum Humidity 17    
Precipitation  
Precipitation 0.00 in 0.10 in 1.00 in (1953)
Month to date precipitation 0.79  
Year to date precipitation 51.23  
Sea Level Pressure  
Sea Level Pressure 30.28 in    
Wind  
Wind Speed 7 mph (NE)    
Max Wind Speed 17 mph    
Max Gust Speed 23 mph    
Visibility 10 miles    
Events      
T = Trace of Precipitation, MM = Missing Value Source: NWS Daily Summary

Daily Weather History Graph

Daily Weather History Graph

Search for Another Location

Airport:

Trip Planner

Search our weather history database for the weather conditions in past years. The results will help you decide how hot, cold, wet, or windy it might be!

Date:

Astronomy

Nov. 08, 2013 Rise Set
Actual Time 6:27 AM CST 5:15 PM CST
Civil Twilight 6:02 AM CST 5:40 PM CST
Nautical Twilight 5:34 AM CST 6:09 PM CST
Astronomical Twilight 5:06 AM CST 6:37 PM CST
Moon 11:23 AM CST (11/8) 10:35 PM CST (11/8)
Length of Visible Light 11h 38m
Length of Day
10h 48m
Waxing Crescent, 33% of the Moon is Illuminated
Nov 8
Waxing Crescent
Nov 9
First Quarter
Nov 17
Full
Nov 25
Last Quarter
Dec 2
New

Hourly Weather History & Observations

Time (CST) Temp. Windchill Dew Point Humidity Pressure Visibility Wind Dir Wind Speed Gust Speed Precip Events Conditions
12:15 AM 50.5 °F - 36.5 °F 59% 30.32 in 10.0 mi North 8.1 mph - N/A   Clear
12:35 AM 50.4 °F - 36.1 °F 58% 30.31 in 10.0 mi North 8.1 mph - N/A   Clear
12:55 AM 50.0 °F - 36.0 °F 59% 30.31 in 10.0 mi NNE 6.9 mph - N/A   Clear
1:15 AM 49.5 °F - 36.5 °F 61% 30.32 in 10.0 mi NNE 5.8 mph - N/A   Clear
1:35 AM 49.1 °F - 36.9 °F 63% 30.31 in 10.0 mi NE 8.1 mph - N/A   Clear
1:55 AM 48.9 °F - 37.0 °F 64% 30.31 in 10.0 mi NE 8.1 mph - N/A   Clear
2:15 AM 48.6 °F - 37.0 °F 64% 30.31 in 10.0 mi NE 8.1 mph - N/A   Clear
2:35 AM 48.2 °F - 37.6 °F 67% 30.31 in 10.0 mi NNE 5.8 mph - N/A   Clear
2:55 AM 47.1 °F - 38.3 °F 71% 30.31 in 10.0 mi North - - N/A   Clear
3:15 AM 47.3 °F - 38.3 °F 71% 30.31 in 10.0 mi North - - N/A   Clear
3:35 AM 46.8 °F - 38.3 °F 72% 30.31 in 10.0 mi North - - N/A   Clear
3:55 AM 46.8 °F - 38.5 °F 73% 30.31 in 10.0 mi North - - N/A   Clear
4:15 AM 46.4 °F - 38.7 °F 74% 30.31 in 10.0 mi North - - N/A   Clear
4:35 AM 45.7 °F - 38.8 °F 77% 30.31 in 10.0 mi North - - N/A   Clear
4:55 AM 45.7 °F - 39.2 °F 78% 30.31 in 10.0 mi North - - N/A   Clear
5:15 AM 45.1 °F - 39.4 °F 80% 30.32 in 10.0 mi North - - N/A   Clear
5:35 AM 45.0 °F - 40.3 °F 84% 30.32 in 10.0 mi North - - N/A   Clear
5:55 AM 44.6 °F - 41.2 °F 88% 30.33 in 10.0 mi North - - N/A   Clear
6:15 AM 43.9 °F - 41.9 °F 93% 30.32 in 10.0 mi North - - N/A   Clear
6:35 AM 44.1 °F - 43.7 °F 99% 30.33 in 10.0 mi North - - N/A   Clear
6:55 AM 44.6 °F 41.4 °F 43.9 °F 97% 30.34 in 10.0 mi North 5.8 mph - N/A   Clear
7:15 AM 46.2 °F 44.1 °F 40.6 °F 81% 30.35 in 10.0 mi North 4.6 mph - N/A   Clear
7:35 AM 47.8 °F - 39.0 °F 71% 30.35 in 10.0 mi NNE 3.5 mph - N/A   Clear
7:55 AM 50.0 °F - 36.9 °F 61% 30.35 in 10.0 mi NE 8.1 mph - N/A   Clear
8:15 AM 52.2 °F - 35.8 °F 54% 30.35 in 10.0 mi NE 9.2 mph - N/A   Clear
8:35 AM 54.5 °F - 33.1 °F 44% 30.35 in 10.0 mi ENE 8.1 mph 17.3 mph N/A   Clear
8:55 AM 56.8 °F - 29.1 °F 35% 30.34 in 10.0 mi NE 10.4 mph 18.4 mph N/A   Clear
9:15 AM 58.5 °F - 27.7 °F 31% 30.34 in 10.0 mi NE 10.4 mph 16.1 mph N/A   Clear
9:35 AM 60.3 °F - 25.7 °F 27% 30.35 in 10.0 mi NE 15.0 mph 20.7 mph N/A   Clear
9:55 AM 60.8 °F - 24.1 °F 25% 30.35 in 10.0 mi ENE 12.7 mph 20.7 mph N/A   Clear
10:15 AM 62.1 °F - 26.1 °F 25% 30.34 in 10.0 mi NE 10.4 mph 19.6 mph N/A   Clear
10:35 AM 62.6 °F - 24.6 °F 24% 30.34 in 10.0 mi NE 17.3 mph 23.0 mph N/A   Clear
10:55 AM 63.3 °F - 24.4 °F 23% 30.33 in 10.0 mi ENE 9.2 mph 21.9 mph N/A   Clear
11:15 AM 64.4 °F - 24.1 °F 22% 30.32 in 10.0 mi ENE 12.7 mph 19.6 mph N/A   Clear
11:35 AM 65.1 °F - 25.0 °F 22% 30.30 in 10.0 mi NNE 12.7 mph 17.3 mph N/A   Clear
11:55 AM 65.3 °F - 23.4 °F 20% 30.29 in 10.0 mi NE 13.8 mph 20.7 mph N/A   Clear
12:15 PM 65.3 °F - 22.6 °F 20% 30.28 in 10.0 mi NE 12.7 mph 17.3 mph N/A   Clear
12:35 PM 66.2 °F - 22.5 °F 19% 30.27 in 10.0 mi NNE 11.5 mph 16.1 mph N/A   Clear
12:55 PM 66.7 °F - 21.0 °F 18% 30.26 in 10.0 mi ENE 6.9 mph - N/A   Clear
1:15 PM 67.1 °F - 20.5 °F 17% 30.25 in 10.0 mi NE 10.4 mph - N/A   Clear
1:35 PM 64.8 °F - 20.5 °F 18% 30.24 in 10.0 mi NE 8.1 mph - N/A   Clear
1:55 PM 66.9 °F - 23.5 °F 19% 30.24 in 10.0 mi NE 6.9 mph - N/A   Clear
2:15 PM 67.8 °F - 23.4 °F 19% 30.23 in 10.0 mi ENE 6.9 mph - N/A   Clear
2:35 PM 65.3 °F - 23.9 °F 21% 30.23 in 10.0 mi NE 5.8 mph - N/A   Clear
2:55 PM 66.2 °F - 23.5 °F 20% 30.23 in 10.0 mi North 8.1 mph - N/A   Clear
3:15 PM 66.2 °F - 23.5 °F 20% 30.22 in 10.0 mi NE 4.6 mph - N/A   Clear
3:35 PM 65.8 °F - 29.1 °F 25% 30.22 in 10.0 mi NNE 5.8 mph - N/A   Clear
3:55 PM 66.0 °F - 25.2 °F 21% 30.22 in 10.0 mi NNE 5.8 mph - N/A   Clear
4:15 PM 65.3 °F - 28.0 °F 25% 30.22 in 10.0 mi NNE 5.8 mph - N/A   Clear
4:35 PM 63.5 °F - 29.3 °F 28% 30.23 in 10.0 mi North 4.6 mph - N/A   Clear
4:55 PM 61.7 °F - 32.9 °F 34% 30.22 in 10.0 mi North 4.6 mph - N/A   Clear
5:15 PM 60.1 °F - 34.9 °F 39% 30.22 in 10.0 mi NNE 4.6 mph - N/A   Clear
5:35 PM 57.9 °F - 36.9 °F 45% 30.23 in 10.0 mi North 3.5 mph - N/A   Clear
5:55 PM 56.8 °F - 37.9 °F 49% 30.22 in 10.0 mi NNE 3.5 mph - N/A   Clear
6:15 PM 54.5 °F - 39.9 °F 58% 30.22 in 10.0 mi Calm Calm - N/A   Clear
6:35 PM 52.5 °F - 41.9 °F 67% 30.22 in 10.0 mi Calm Calm - N/A   Clear
6:55 PM 51.4 °F - 42.8 °F 72% 30.22 in 10.0 mi NNE 3.5 mph - N/A   Clear
7:15 PM 50.5 °F - 41.5 °F 71% 30.23 in 10.0 mi Calm Calm - N/A   Clear
7:35 PM 49.6 °F - 42.3 °F 76% 30.23 in 10.0 mi Calm Calm - N/A   Clear
7:55 PM 49.1 °F - 44.8 °F 85% 30.23 in 10.0 mi Calm Calm - N/A   Clear
8:15 PM 48.2 °F - 48.0 °F 99% 30.23 in 10.0 mi Calm Calm - N/A   Clear
8:35 PM 49.5 °F - 46.0 °F 88% 30.22 in 10.0 mi Calm Calm - N/A   Clear
8:55 PM 47.7 °F - 47.5 °F 99% 30.23 in 10.0 mi Calm Calm - N/A   Clear
9:15 PM 47.5 °F - 47.5 °F 100% 30.23 in 10.0 mi Calm Calm - N/A   Clear
9:35 PM 47.3 °F - 47.3 °F 100% 30.23 in 10.0 mi Calm Calm - N/A   Clear
9:55 PM 47.3 °F - 47.3 °F 100% 30.23 in 10.0 mi Calm Calm - N/A   Clear
10:15 PM 45.9 °F - 45.9 °F 100% 30.22 in 10.0 mi Calm Calm - N/A   Clear
10:35 PM 45.7 °F - 45.7 °F 100% 30.22 in 10.0 mi Calm Calm - N/A   Clear
10:55 PM 46.4 °F - 46.4 °F 100% 30.22 in 10.0 mi Calm Calm - N/A   Clear
11:15 PM 45.7 °F - 45.7 °F 100% 30.22 in 10.0 mi Calm Calm - N/A   Clear
11:35 PM 46.8 °F - 46.8 °F 100% 30.22 in 10.0 mi Calm Calm - N/A   Clear
11:55 PM 46.8 °F - 46.8 °F 100% 30.21 in 10.0 mi Calm Calm - N/A   Clear